Location: Nashville
(36.1660°N, 86.7840°W)
Time: 06:40:15
(UTC-05:00)

FO-29 - Visible Passes

Search period start: 22 May 2022 00:00
Search period end: 01 June 2022 00:00
Orbit: 800 x 1321 km, 98.5° (Epoch: 21 May)

Date Brightness Start Highest point End Pass type
(mag) Time Alt. Az. Time Alt. Az. Time Alt. Az.
22 May 11.7 20:47:32 10° SW 20:51:26 20° W 20:55:36 10° NW visible
24 May 11.7 20:42:05 10° SW 20:46:17 22° W 20:50:48 10° NW visible
26 May 11.6 20:36:39 10° SSW 20:41:07 25° W 20:46:00 10° NW visible
28 May 11.5 20:31:16 10° SSW 20:35:59 28° W 20:41:09 10° NW visible
30 May 11.3 20:25:54 10° SSW 20:30:50 31° W 20:36:20 10° NNW visible
